Lexington Weather

Lexington, Massachusetts, USA

59°F
11/30/2020 6:35pm 
  • Lexington Conditions: Rain, Mist, Overcast
  • Temperature: 59.2°F / 15.1°CColder 0.2°F than last hour.
  • Dew Point: 57.4°FDecreased 0.2°Fsince last hour.
  • Relative Humidity: 94
  • Wind: Wind from W W 9 mph, 10-min avg: 7 mph, gust: 24 mph
  • Barometer: 29.54 inFalling 0.04  inHg/hr Falling Slowly
  • Visibility: 3 miles
  • Rain Today: 0.58 in
  •   
Southeast Middlesex County - Wind Advisory - Special Weather Statement
 - SEE ALL NEARBY ALERTS -

Regional Weather Roundup
for Boston / Norton, MA

        
000
ASUS41 KBOX 271104
RWRBOX

REGIONAL WEATHER ROUNDUP
NATIONAL WEATHER SERVICE BOSTON/NORTON MA
600 AM EST FRI NOV 27 2020

NOTE:  "FAIR" INDICATES FEW OR NO CLOUDS BELOW 12,000 FEET WITH NO 
SIGNIFICANT WEATHER AND/OR OBSTRUCTIONS TO VISIBILITY.

MAZALL-271200-
EASTERN MASSACHUSETTS
  
CITY           SKY/WX    TMP DP  RH WIND       PRES   REMARKS
BOSTON         PTCLDY    43  42  97 CALM      30.03R                  
BEVERLY        FOG       40  38  93 CALM      30.01S VSB 1            
LAWRENCE       FOG       37  37 100 S3        30.03F VSB 1/4          
BEDFORD        PTCLDY    33  32  96 CALM      30.02R FOG              
BLUE HILL        N/A     47  45  93 NW15      30.00S                  
NORWOOD        FOG       38  35  89 CALM      30.02S VSB 3/4          
MARSHFIELD     CLEAR     46  46 100 CALM      30.02R FOG              
PLYMOUTH       FOG       41  41 100 CALM      30.02R VSB 3/4          
TAUNTON        CLEAR     40  37  89 CALM      30.02R                  
NEW BEDFORD    FOG       42  41  96 CALM      30.03R VSB 1/2          
$$

MAZALL-271200-
CAPE COD AND THE ISLANDS
  
CITY           SKY/WX    TMP DP  RH WIND       PRES   REMARKS
FALMOUTH       CLEAR     43  43 100 CALM      30.03R                  
HYANNIS        FOG       41  41 100 CALM      30.02R VSB 3/4          
CHATHAM        FOG       47  46  97 CALM      30.04S VSB 1/4          
NANTUCKET      CLEAR     50  48  93 NW5       30.03S                  
MARTHAS VNYRD  FOG       40  39  97 CALM      30.04R VSB 1/2          
$$
 
MAZALL-271200-
CENTRAL AND WESTERN MASSACHUSETTS
  
CITY           SKY/WX    TMP DP  RH WIND       PRES   REMARKS
WORCESTER      CLEAR     50  43  77 NW13      30.01R                  
FITCHBURG      CLEAR     45  43  93 N8        30.02S                  
ORANGE         FOG       38  37  97 CALM      30.04F VSB 1/4          
SPRINGFIELD    CLOUDY    40  40 100 CALM      30.02F                  
WESTFIELD      CLOUDY    40  40 100 CALM      30.03F                  
NORTH ADAMS    CLOUDY    51  45  79 NW5       30.04R                  
PITTSFIELD     CLOUDY    48  44  86 W5        30.03S                  
$$
 
RIZALL-271200-
RHODE ISLAND
  
CITY           SKY/WX    TMP DP  RH WIND       PRES   REMARKS
PROVIDENCE     FOG       44  43  96 CALM      30.04R VSB 3/4          
NEWPORT        FOG       43  43 100 CALM      30.03R VSB 1/4          
BLOCK ISLAND   MOCLDY    51  49  92 W6        30.06R                  
SMITHFIELD     CLEAR     45  45 100 CALM      30.03R                  
WESTERLY       CLOUDY    44  43  96 CALM      30.05R                  
$$
 
CTZALL-271200-
CONNECTICUT
  
CITY           SKY/WX    TMP DP  RH WIND       PRES   REMARKS
BRADLEY INTL   MOCLDY    44  42  93 CALM      30.03F                  
HARTFORD       CLOUDY    46  44  93 CALM      30.05R                  
BRIDGEPORT     CLOUDY    49  47  93 CALM      30.05R                  
DANBURY        CLOUDY    45  44  97 CALM      30.06R                  
GROTON         CLOUDY    45  44  97 CALM      30.05R                  
NEW HAVEN      CLOUDY    49  47  93 CALM      30.05R                  
CHESTER        CLOUDY    52  48  87 CALM      30.04S                  
MERIDEN        CLOUDY    44  43  96 CALM      30.05R                  
WILLIMANTIC    CLOUDY    40  40 100 CALM      30.05R                  
OXFORD         CLOUDY    48  47  96 CALM      30.05R                  
$$

MEZ002-015-021-024-NHZ003-005-008-011-012-014-VTZ005-008-271200-
NORTHERN NEW ENGLAND
  
CITY           SKY/WX    TMP DP  RH WIND       PRES   REMARKS
PORTLAND ME    FOG       33  33 100 CALM      30.01S VSB 1/4          
BANGOR ME      DRZL/FOG  33  33 100 CALM      29.99R VSB 1/4          
CONCORD NH     FOG       34  33  96 CALM      30.03R VSB 1/4          
MANCHESTER NH  FOG       35  34  96 CALM      30.01S VSB 1/8          
NASHUA NH      PTCLDY    31  31 100 W5        30.03F WCI  26          
PORTSMOUTH NH  NOT AVBL                                               
JAFFREY NH     PTCLDY    36  34  92 CALM      30.02S FOG              
KEENE NH       FOG       40  40 100 CALM      30.04S VSB 1/4          
BURLINGTON VT  CLOUDY    47  43  86 N5        30.03R                  
MT. WASHINGTON FRZ DRZL  32  32 100 NW35        N/A  VSB 1/16WCI  17  
$$

NYZ052-076-271200-
EASTERN NEW YORK
  
CITY           SKY/WX    TMP DP  RH WIND       PRES   REMARKS
ALBANY         CLOUDY    48  43  82 W12       30.05S                  
NEW YORK CITY  MOCLDY    54  44  69 SW5       30.06R                  
$$
 
ANZALL-271200-
MARINE OBSERVATIONS
  
STATION/POSITION TIME  TEMP    WIND        PRES    VSBY  WAVE
                       AIR SEA DIR/SP/G                  HT/PER
                 (UTC) (F)     (DEG/KT/KT) (MB)    (MI)  (FT/S)
BOSTON BUOY      1040   45 50  280/  4/  4 1016.8F
BUZZARDS BAY     1000          280/  6/  7 1017.4R
NANTUCKET SOUND  1040      51   CALM  /  2   N/A
MASS BAY-STELLWA NOT AVBL
ISLE OF SHOALS   1000   41     240/  8/  9 1015.8R
S OF BLOCK IS    1026      57                N/A           6/ 8
$$

......................KEY.........................
  SKY/WX - SKY CONDITION/PRESENT WEATHER
  TMP    - TEMPERATURE IN FAHRENHEIT
  DWPT   - DEWPOINT IN FAHRENHEIT
  RH     - RELATIVE HUMIDITY IN PERCENT
  WIND   - DIRECTION AND SPEED IN MPH
  PRES   - MEAN SEA LEVEL PRESSURE IN INCHES OF HG
  WCI    - WIND CHILL INDEX
  VSB    - VISIBILITY IN MILES
  HX     - HEAT INDEX
  TC     - TEMPERATURE IN CELSIUS
  VRB    - VARIABLE WIND DIRECTION
  N/A    - NOT AVAILABLE
  
      

Other recent Regional Weather Roundups

Mon Nov 30, 6:04pm

Mon Nov 30, 5:05pm

Mon Nov 30, 4:04pm

Mon Nov 30, 3:05pm

Mon Nov 30, 2:05pm

Mon Nov 30, 1:04pm

Mon Nov 30, 12:05pm

Mon Nov 30, 11:04am

Mon Nov 30, 10:04am

Mon Nov 30, 9:04am

Mon Nov 30, 8:04am

Mon Nov 30, 7:05am

Mon Nov 30, 6:04am

Mon Nov 30, 5:05am

Mon Nov 30, 4:04am

Mon Nov 30, 3:04am

Mon Nov 30, 2:04am

Mon Nov 30, 1:04am

Mon Nov 30, 12:04am

Sun Nov 29, 11:04pm

Sun Nov 29, 10:04pm

Sun Nov 29, 9:04pm

Sun Nov 29, 8:04pm

Sun Nov 29, 7:04pm

Sun Nov 29, 6:04pm

Sun Nov 29, 5:04pm

Sun Nov 29, 4:05pm

Sun Nov 29, 3:04pm

Sun Nov 29, 2:04pm

Sun Nov 29, 1:04pm

Sun Nov 29, 12:04pm

Sun Nov 29, 11:04am

Sun Nov 29, 10:04am

Sun Nov 29, 9:04am

Sun Nov 29, 8:05am

Sun Nov 29, 7:04am

Sun Nov 29, 6:04am

Sun Nov 29, 5:04am

Sun Nov 29, 4:04am

Sun Nov 29, 3:04am

Sun Nov 29, 2:05am

Sun Nov 29, 1:04am

Sun Nov 29, 12:04am

Sat Nov 28, 11:04pm

Sat Nov 28, 10:04pm

Sat Nov 28, 9:04pm

Sat Nov 28, 8:04pm

Sat Nov 28, 7:04pm

Sat Nov 28, 6:04pm

Sat Nov 28, 5:04pm

Sat Nov 28, 4:04pm

Sat Nov 28, 3:04pm

Sat Nov 28, 2:04pm

Sat Nov 28, 1:04pm

Sat Nov 28, 12:04pm

Sat Nov 28, 11:04am

Sat Nov 28, 10:04am

Sat Nov 28, 9:04am

Sat Nov 28, 8:04am

Sat Nov 28, 7:04am

Sat Nov 28, 6:04am

Sat Nov 28, 5:04am

Sat Nov 28, 4:04am

Sat Nov 28, 3:05am

Sat Nov 28, 2:04am

Sat Nov 28, 1:04am

Sat Nov 28, 12:04am

Fri Nov 27, 11:05pm

Fri Nov 27, 10:04pm

Fri Nov 27, 9:04pm

Fri Nov 27, 8:04pm

Fri Nov 27, 7:04pm

Fri Nov 27, 6:04pm

Fri Nov 27, 5:04pm

Fri Nov 27, 4:05pm

Fri Nov 27, 3:05pm

Fri Nov 27, 2:05pm

Fri Nov 27, 1:04pm

Fri Nov 27, 12:04pm

Fri Nov 27, 11:04am

Fri Nov 27, 10:04am

Fri Nov 27, 9:05am

Fri Nov 27, 8:04am

Fri Nov 27, 7:04am

Fri Nov 27, 5:04am

Fri Nov 27, 4:04am

Fri Nov 27, 3:04am

Fri Nov 27, 2:04am

Fri Nov 27, 1:04am

Fri Nov 27, 12:04am

Thu Nov 26, 11:04pm

Thu Nov 26, 10:04pm

Thu Nov 26, 9:04pm

Thu Nov 26, 8:04pm

Thu Nov 26, 7:04pm

Thu Nov 26, 6:04pm

Thu Nov 26, 5:04pm

Thu Nov 26, 4:04pm

Thu Nov 26, 2:04pm

Thu Nov 26, 1:04pm

Thu Nov 26, 12:04pm

Thu Nov 26, 11:04am

Thu Nov 26, 10:04am

Thu Nov 26, 9:04am

Thu Nov 26, 8:04am

Thu Nov 26, 7:04am

Thu Nov 26, 6:04am

Thu Nov 26, 5:04am

Thu Nov 26, 4:04am

Thu Nov 26, 3:04am

Thu Nov 26, 2:04am

Thu Nov 26, 1:04am

Thu Nov 26, 12:04am

Wed Nov 25, 11:04pm

Wed Nov 25, 10:04pm

Wed Nov 25, 9:04pm

Wed Nov 25, 8:04pm

Wed Nov 25, 7:04pm

Wed Nov 25, 6:04pm

Wed Nov 25, 5:04pm

Wed Nov 25, 4:04pm

Wed Nov 25, 3:05pm

Wed Nov 25, 2:04pm

Wed Nov 25, 1:04pm

Wed Nov 25, 12:05pm

Wed Nov 25, 11:04am

Wed Nov 25, 10:04am

Wed Nov 25, 9:04am

Wed Nov 25, 8:04am

Wed Nov 25, 7:04am

Wed Nov 25, 6:04am

Wed Nov 25, 5:04am

Wed Nov 25, 4:04am

Wed Nov 25, 3:04am

Wed Nov 25, 2:04am

Wed Nov 25, 1:04am

Wed Nov 25, 12:04am

Tue Nov 24, 11:04pm

Tue Nov 24, 10:04pm

Tue Nov 24, 9:04pm

Tue Nov 24, 8:04pm

Tue Nov 24, 7:04pm

Tue Nov 24, 6:04pm

Tue Nov 24, 5:04pm

Tue Nov 24, 4:05pm

Tue Nov 24, 3:05pm

Tue Nov 24, 2:05pm

Tue Nov 24, 1:05pm

Tue Nov 24, 12:04pm

Tue Nov 24, 11:04am

Tue Nov 24, 10:04am

Tue Nov 24, 9:04am

Tue Nov 24, 8:04am

Tue Nov 24, 7:04am

Tue Nov 24, 6:04am

Tue Nov 24, 5:04am

Tue Nov 24, 4:05am

Tue Nov 24, 3:04am

Tue Nov 24, 2:04am

Tue Nov 24, 1:04am

Tue Nov 24, 12:05am

Mon Nov 23, 11:04pm

Mon Nov 23, 10:04pm

Mon Nov 23, 9:04pm

Mon Nov 23, 8:04pm

Mon Nov 23, 7:04pm

Meta data:

ID: 9cb7e035-214e-4875-9b14-237100cadf88
Link: https://api.weather.gov/products/9cb7e035-214e-4875-9b14-237100cadf88